Location: Hermaringen
(48.5952°N, 10.2585°E)
Time: 04:43:49
(UTC+00:00)

S-56A Canister/Altair - Pass Details

Date: 23 February 2026
Orbit: 633 x 2484 km, 38.9° (Epoch: 11 March)

Event Time Altitude Azimuth Distance (km) Brightness Sun altitude
Exits shadow 02:08:52 13° 151° (SSE) 3,677 10.9 -39.3°
Drops below altitude 10° 02:10:14 10° 146° (SSE) 4,058 11.1 -39.2°
Sets 02:14:45 0° 137° (SE) 5,369 11.9 -38.6°
